Home > Weather > Glendale > Past weeks

Flag for USA Weather for the Past 2 Weeks in Glendale, Arizona, USA

Now
99 °F

Sunny.


Feels Like: 94 °F
Forecast: 69 / 99 °F
Wind: 13 mph from South

Location: Phoenix-Deer Valley Municipal Airport

Current Time: May 4, 2016 at 4:47:21 PM

Latest Report: May 4, 2016 at 3:53 PM


Visibility: 10 mi

Pressure: 29.69 "Hg

Humidity: 7%

Dew Point: 25 °F

Location of GlendaleLocation

Historic Weather in Glendale — Graph

°F

Glendale Temperature Yesterday

Maximum temperature yesterday: 91 °F (at 3:53 PM)
Minimum temperature yesterday: 63 °F (at 4:53 AM)
Average temperature yesterday: 79 °F

High & Low Weather Summary for the Past Weeks

 TemperatureHumidityPressure
High99 °F (May 4, 3:53 PM)72% (Apr 30, 5:53 PM)29.96 "Hg (Apr 30, 5:53 PM)
Low54 °F (Apr 26, 5:53 AM)6% (Apr 21, 2:53 PM)29.52 "Hg (Apr 30, 3:53 PM)
Average73 °F23%29.77 "Hg
* Reported Apr 19 3:53 PM — May 4 3:53 PM, Glendale, Weather by CustomWeather, © 2016

Note: Actual official high and low records may vary slightly from our data, if they occured in-between our weather recording intervals... More about our weather records

Advertising

Glendale Weather History for the Previous 24 Hours

Scroll right to see more
 ConditionsComfort  
Time TempWeatherWind HumidityBarometerVisibility
3:53 PM
Wed, May 4
99 °FSunny.13 mph7%29.69 "Hg10 mi
2:53 PM98 °FSunny.15 mph6%29.72 "Hg10 mi
1:53 PM98 °FSunny.16 mph8%29.75 "Hg10 mi
12:53 PM96 °FSunny.15 mph9%29.78 "Hg10 mi
11:53 AM95 °FSunny.16 mph9%29.81 "Hg10 mi
10:53 AM92 °FSunny.13 mph12%29.83 "Hg10 mi
9:53 AM91 °FSunny.14 mph12%29.84 "Hg10 mi
8:53 AM88 °FSunny.12 mph13%29.85 "Hg10 mi
7:53 AM84 °FSunny.9 mph15%29.85 "Hg10 mi
6:53 AM76 °FSunny.6 mph21%29.85 "Hg10 mi
5:53 AM72 °FSunny.8 mph23%29.83 "Hg10 mi
4:53 AM71 °FClear.6 mph24%29.82 "Hg10 mi
3:53 AM71 °FClear.No wind24%29.81 "Hg10 mi
2:53 AM72 °FClear.No wind24%29.82 "Hg10 mi
1:53 AM74 °FClear.6 mph21%29.81 "Hg10 mi
12:53 AM75 °FClear.5 mph22%29.81 "Hg10 mi
11:53 PM
Tue, May 3
75 °FClear.3 mph21%29.82 "Hg10 mi
10:53 PM76 °FClear.No wind20%29.82 "Hg10 mi
9:53 PM79 °FClear.9 mph17%29.81 "Hg10 mi
8:53 PM82 °FClear.No wind16%29.80 "Hg10 mi
7:53 PM86 °FClear.7 mph14%29.79 "Hg10 mi
6:53 PM88 °FSunny.12 mph12%29.77 "Hg10 mi
5:53 PM90 °FSunny.10 mph12%29.77 "Hg10 mi
4:53 PM91 °FSunny.10 mph11%29.77 "Hg10 mi
Weather by CustomWeather, © 2016

See weather overviewHow to use our weather pages